Flag for United Kingdom Weather past 2 weeks in Ely, England, United Kingdom

Now
47 °F

Clear.


Feels Like: 45 °F
Forecast: 53 / 66 °F
Wind: 5 mph from Southwest

Location: Mildenhall Royal Air Force Base

Current Time: Aug 21, 2014 at 2:02:40 AM

Latest Report: Aug 21, 2014 at 12:58 AM


Visibility: N/A

Pressure: 30.03 "Hg

Humidity: 100%

Dew point: 47 °F

Location of ElyLocation

Historic Weather in Ely — Graph

°F

Ely temperature yesterday

Maximum temperature yesterday: 64 °F (at 12:58 PM)
Minimum temperature yesterday: 45 °F (at 5:58 AM)
Average temperature yesterday: 55 °F

Past Weeks' High & Low Weather Summary

 TemperatureHumidityPressure
High80 °F (Aug 6, 4:58 PM)100% (Aug 6, 3:58 AM)30.13 "Hg (Aug 6, 3:58 AM)
Low45 °F (Aug 20, 5:58 AM)43% (Aug 9, 1:58 PM)29.26 "Hg (Aug 10, 2:03 PM)
Average61 °F81%29.80 "Hg
* Reported Aug 5 11:58 PM — Aug 20 11:58 PM, Ely, Weather by CustomWeather, © 2014

Note: Actual official high and low records may vary slightly from our data, if they occured in-between our weather recording intervals... More about our weather records

Advertising

Ely weather history for previous 24 hours

 ConditionsComfort  
Time TempWeatherWind HumidityBarometerVisibility
11:58 PM
Aug 20
47 °FClear.3 mph100%30.03 "HgN/A
10:58 PM50 °FClear.3 mph93%30.03 "HgN/A
9:58 PM53 °FClear.2 mph84%30.03 "HgN/A
8:58 PM55 °FOvercast.6 mph76%30.03 "HgN/A
8:03 PM57 °FCloudy.8 mph67%30.01 "HgN/A
7:58 PM58 °FMostly cloudy.12 mph68%30.02 "HgN/A
6:58 PM60 °FOvercast.7 mph62%30.01 "HgN/A
5:58 PM61 °FMore clouds than sun.7 mph59%30.00 "HgN/A
4:58 PM62 °FOvercast.5 mph57%30.00 "HgN/A
3:58 PM61 °FOvercast.8 mph56%30.01 "HgN/A
2:58 PM61 °FMore clouds than sun.9 mph56%30.01 "HgN/A
1:58 PM63 °FBroken clouds.14 mph53%30.00 "HgN/A
12:58 PM64 °FBroken clouds.10 mph52%30.00 "HgN/A
12:03 PM63 °FBroken clouds.8 mph56%30.00 "HgN/A
11:03 AM59 °FScattered clouds.7 mph68%30.00 "HgN/A
10:58 AM60 °FPartly sunny.9 mph67%30.01 "HgN/A
9:58 AM58 °FSunny.7 mph81%30.01 "HgN/A
8:58 AM54 °FSunny.7 mph100%30.01 "HgN/A
7:58 AM49 °FSunny.5 mph100%30.00 "HgN/A
6:58 AM46 °FSunny.6 mph99%30.00 "HgN/A
5:58 AM45 °FClear.5 mph100%30.00 "HgN/A
4:58 AM45 °FPassing clouds.5 mph100%30.00 "HgN/A
3:58 AM46 °FPassing clouds.7 mph100%30.00 "HgN/A
2:58 AM46 °FPassing clouds.6 mph100%29.99 "HgN/A
Weather by CustomWeather, © 2014

See weather overviewHow to use our weather pages